22:59
Airports
History
Links
Donate
Help keep this website running!
PayPal
Bitcoin
This page is community maintained. The information is intended for PC simulator navigation or reference.
Always use approved charts for navigation.
EDOQ
OSCHATZ
OSCHATZ (EDOQ)
Oschatz, Sachsen, Germany (4758)
(C)
Lat/Lng:51° 17' 45.6" N / 13° 4' 42.11" E
51.296 / 13.078364
Elevation:501'ft / 153mMSL
ID / ICAO:EDOQ
Runways:1
Longest:08-26
Grass 756m / 2,482ft
Controlled:Yes
Nearby Weather22:50 GMT 2018-02-22
Nearby weather at EDDC, Dresden located 31.9 nautical miles from EDOQ
Altimeter: 30.18
Visibility: 6.2 statute miles
Wind: 6 knots (from 060°)
Temp: -5°c / 23°f
Humidity: 79.4%

METAR: EDDC 222250Z 06006KT CAVOK M05/M08 Q1022

(Powered by phpweather)
Airport Radio Frequencies
INFO: 122.2
Nearby VORs <50NM
Nearby NDBs
Runway 08 / 26
Dimensions:756.4 x 50m 2482' x 164'ft
Surface:Grass
Runway 08 [A]Runway 26 [B]
Heading:080°TH 260°TH
Lat:
Lng:
51° 17' 43.48"N
13° 4' 22.85"E
51° 17' 47.72"N
13° 5' 1.37"E
User Notes and Comments
51° 17' 45.6" N / 13° 4' 42.11" E
Distance To
Airport ID:
Nearby Airports
(U) RIESA GOHLIS 11.9 NM
EDAU E 90°
(U) FALKENBERG LONNEWITZ 18.6 NM
EDUF NNE 20°
(U) GROSSENHAIN 20.6 NM
EDAK E 87°
(C) TAUCHA 24.3 NM
EDCT WNW 286°
(C) BOEHLEN 31.2 NM
EDOE W 259°
(C) ROITZSCHJORA 31.8 NM
EDAW NW 307°
(C) Dresden 31.9 NM
EDDC ( WX ) ESE 110°
VFR Chart
Flight Planning at SkyVector.com